Weather History for St. Joseph, MO

Change the Weather History Date:

Thursday, December 13, 2012

  Actual Average Record
Temperature  
Mean Temperature 41 °F 30 °F  
Max Temperature 55 °F 40 °F 68 °F (1921)
Min Temperature 26 °F 20 °F -12 °F (1961)
Degree Days  
Heating Degree Days 24 35  
Month to date heating degree days 318 430  
Since 1 July heating degree days 1430 1541  
Cooling Degree Days 0 0  
Month to date cooling degree days 0 0  
Year to date cooling degree days 1565 1221  
Moisture  
Dew Point 17 °F    
Average Humidity 44    
Maximum Humidity 63    
Minimum Humidity 24    
Precipitation  
Precipitation 0.00 in 0.05 in 1.00 in (1992)
Month to date precipitation 0.03 0.64  
Year to date precipitation 22.34 34.72  
Sea Level Pressure  
Sea Level Pressure 30.11 in    
Wind  
Wind Speed 9 mph (SSW)    
Max Wind Speed 21 mph    
Max Gust Speed 24 mph    
Visibility 10 miles    
Events      
T = Trace of Precipitation, MM = Missing Value Source: NWS Daily Summary

Daily Weather History Graph

Daily Weather History Graph

Search for Another Location

Airport:

Trip Planner

Search our weather history database for the weather conditions in past years. The results will help you decide how hot, cold, wet, or windy it might be!

Date:

Astronomy

Dec. 13, 2012 Rise Set
Actual Time 7:32 AM CST 4:55 PM CST
Civil Twilight 7:02 AM CST 5:26 PM CST
Nautical Twilight 6:28 AM CST 5:59 PM CST
Astronomical Twilight 5:55 AM CST 6:32 PM CST
Moon 7:41 AM CST (12/13) 5:39 PM CST (12/13)
Length of Visible Light 10h 23m
Length of Day
9h 23m
New Moon, 0% of the Moon is Illuminated
Dec 13
New Moon
Dec 19
First Quarter
Dec 28
Full
Jan 4
Last Quarter
Jan 11
New

Hourly Weather History & Observations

Time (CST) Temp. Windchill Dew Point Humidity Pressure Visibility Wind Dir Wind Speed Gust Speed Precip Events Conditions
12:53 AM 39.0 °F 30.3 °F 12.0 °F 33% 30.12 in 10.0 mi South 16.1 mph - N/A   Clear
1:53 AM 39.0 °F 30.6 °F 12.0 °F 33% 30.12 in 10.0 mi South 15.0 mph - N/A   Clear
2:53 AM 39.0 °F 31.0 °F 12.9 °F 34% 30.11 in 10.0 mi South 13.8 mph - N/A   Clear
3:53 AM 39.0 °F 30.3 °F 14.0 °F 36% 30.10 in 10.0 mi South 16.1 mph - N/A   Clear
4:53 AM 39.0 °F 30.6 °F 14.0 °F 36% 30.09 in 10.0 mi South 15.0 mph - N/A   Clear
5:53 AM 37.0 °F 31.0 °F 15.1 °F 41% 30.11 in 10.0 mi South 8.1 mph - N/A   Clear
6:53 AM 35.1 °F 28.6 °F 15.1 °F 44% 30.11 in 10.0 mi South 8.1 mph - N/A   Clear
7:53 AM 35.1 °F 28.6 °F 17.1 °F 48% 30.12 in 10.0 mi South 8.1 mph - N/A   Clear
8:53 AM 39.0 °F 31.8 °F 18.0 °F 43% 30.12 in 10.0 mi South 11.5 mph - N/A   Clear
9:53 AM 42.1 °F 34.2 °F 18.0 °F 38% 30.14 in 10.0 mi SSW 16.1 mph - N/A   Clear
10:53 AM 46.9 °F - 19.0 °F 33% 30.13 in 10.0 mi SSW 16.1 mph 23.0 mph N/A   Clear
11:53 AM 50.0 °F - 19.9 °F 31% 30.12 in 10.0 mi SW 15.0 mph - N/A   Clear
12:53 PM 52.0 °F - 19.9 °F 28% 30.09 in 10.0 mi SSW 10.4 mph 18.4 mph N/A   Clear
1:53 PM 54.0 °F - 19.9 °F 26% 30.08 in 10.0 mi SW 11.5 mph - N/A   Clear
2:53 PM 55.0 °F - 19.9 °F 25% 30.06 in 10.0 mi SSW 13.8 mph - N/A   Clear
3:53 PM 53.1 °F - 21.0 °F 29% 30.07 in 10.0 mi SSW 10.4 mph - N/A   Clear
5:53 PM 43.0 °F - 19.9 °F 40% 30.09 in 10.0 mi Calm Calm - N/A   Clear
7:53 PM 32.0 °F - 16.0 °F 52% 30.11 in 10.0 mi Calm Calm - N/A   Clear
8:53 PM 28.9 °F - 16.0 °F 58% 30.12 in 10.0 mi Calm Calm - N/A   Clear
9:53 PM 28.0 °F - 15.1 °F 58% 30.11 in 10.0 mi Calm Calm - N/A   Clear
10:53 PM 28.0 °F - 18.0 °F 66% 30.12 in 10.0 mi Calm Calm - N/A   Clear